Strona główna
METAR-TAF:

METAR-TAF

Lotnisko :

Miyako-jima, Japonia

Szerokość geograficzna: 24-47N, Długość geograficzna: 125-17E, wysokość: 40 m

Aktualna obserwacja pogody

Raport powstał 57 minut temu, godzina 09:00 UTC
Wiatr 9 kt od południe
Temperatura 24°C
Wilgotność 83%
Ciśnienie 1017 hPa
Widzialność 10 km lub więcej
Rozproszone chmury na wysokości 900 ft
Przerywane chmury na wysokości 10000 ft

METAR: ROMY 250900Z 18009KT 9999 SCT009 BKN100 24/21 Q1017

czas: 18:57 (09:57 UTC)


TAF: brakujący

Obserwacja i prognoza pogody dla ponad 4000 lotnisk (raport METAR i TAF).

Dostępne stacje oznaczono żółtymi i czerwonymi punktami na mapie.

Najedź kursorem aby zobaczyć nazwę stacji.

Kliknij aby zobaczyć obserwacje i prognozy pogody.

Aby zmienić mapę: kliknij na zielony przycisk z czarnym krzyżykiem, aby powiększyć; na zielony przycisk z myślnikiem, aby pomniejszyć; na zielone strzałki, aby przejść do map sąsiednich.


METAR-TAF: